Regional Weather Roundup
Issued by NWS

Home | Current Version | Previous Version | Graphics & Text | Print | Product List | Glossary On
Versions: 1 2 3 4 5 6 7 8 9 10 11 12 13 14 15 16 17 18 19 20 21 22 23 24 25 26 27 28 29 30 31 32 33 34 35 36 37 38 39 40 41 42 43 44 45 46 47 48 49 50
059
ASUS44 KJAN 261703
RWRMS

MISSISSIPPI HOURLY WEATHER ROUNDUP
NATIONAL WEATHER SERVICE JACKSON MS
1200 PM CDT TUE AUG 26 2014

NOTE: "FAIR: INDICATES FEW OR NO CLOUDS BELOW 12,000 FEET WITH NO
SIGNIFICANT WEATHER AND/OR OBSTRUCTIONS TO VISIBILITY.

MSZ001>002-007>008-010>013-018>021-025>028-034>036-261800-
NORTHWEST MISSISSIPPI

CITY           SKY/WX    TMP DP  RH WIND       PRES   REMARKS
CLARKSDALE     FAIR      86  68  54 CALM      30.11S
CLEVELAND      FAIR      86  70  57 E5        30.09F HX  90
GREENWOOD      PTSUNNY   86  64  47 SE8       30.10S
GREENVILLE     MOSUNNY   88  67  49 CALM      30.08F HX  91
GRENADA        PTSUNNY   84  64  51 CALM      30.11F
OLIVE BRANCH   PTSUNNY   82  75  78 SE5       30.13S
OXFORD         FAIR      82  63  51 SW7       30.15S
TUNICA         MOSUNNY   88  68  51 S3        30.11S HX  91
$$

MSZ003>006-009-014>017-022>024-029>033-037>039-261800-
NORTHEAST MISSISSIPPI

CITY           SKY/WX    TMP DP  RH WIND       PRES   REMARKS
BELMONT        CLOUDY    80  63  54 S6        30.14S
COLUMBUS AFB   SUNNY     86  58  39 VRB5      30.12S
CORINTH        CLOUDY    84  64  51 SE6       30.13S
GOLDN TRIANGLE MOSUNNY   84  59  42 SE6       30.12F
STARKVILLE     FAIR      86  55  35 E5        30.11F
TUPELO         CLOUDY    82  62  50 S7        30.13S
$$

MSZ040-058-261800-
CENTRAL MISSISSIPPI

CITY           SKY/WX    TMP DP  RH WIND       PRES   REMARKS
JACKSON INTL   SUNNY     88  60  38 NE8       30.08S
JACKSON HAWKNS SUNNY     87  60  40 VRB6      30.08S
MERIDIAN KEY   SUNNY     86  59  39 VRB6      30.09S
MERIDIAN NAS   MOSUNNY   86  60  41 VRB7      30.10F
RAYMOND        FAIR      86  81  84 E6        30.08S HX 102
VICKSBURG      SUNNY     88  66  48 NE7       30.06F HX  90
$$

MSZ059>079-261800-
SOUTH MISSISSIPPI

CITY           SKY/WX    TMP DP  RH WIND       PRES   REMARKS
BROOKHAVEN     FAIR      84  66  54 NE3       30.08S
COLUMBIA       FAIR      86  66  51 MISG      30.04F
HATTIESBURG    SUNNY     88  63  43 E8G17     30.05F
MCCOMB         SUNNY     86  65  49 NE8       30.05S
NATCHEZ        MOSUNNY   84  70  61 E9        30.06F
PINE BELT      SUNNY     88  61  40 NE8       30.08S
$$

MSZ080>082-261800-
COASTAL MISSISSIPPI

CITY           SKY/WX    TMP DP  RH WIND       PRES   REMARKS
BAY ST LOUIS   MOSUNNY  N/A N/A N/A E7        30.01F
BILOXI         SUNNY     90  68  48 E8        30.02S HX  93
PASCAGOULA     SUNNY     88  68  51 VRB6      30.02S HX  91
GULFPORT       MOSUNNY   88  69  53 E10       30.01S HX  92
$$



USA.gov is the U.S. government's official web portal to all federal, state and local government web resources and services.